Location: Newark
(33.6439°N, 114.9881°W)
Time: 10:21:29
(UTC+00:00)

Explorer 7 - Visible Passes

Search period start: 17 July 2019 00:00
Search period end: 27 July 2019 00:00
Orbit: 485 x 680 km, 50.3° (Epoch: 16 July)

Date Brightness Start Highest point End Pass type
(mag) Time Alt. Az. Time Alt. Az. Time Alt. Az.
17 Jul 9.5 12:12:06 10° NNW 12:15:12 21° NNE 12:18:26 10° E visible
19 Jul 9.9 10:42:56 10° N 10:44:24 12° NNE 10:45:53 10° NE visible
20 Jul 8.6 04:00:59 10° S 04:01:49 14° S 04:01:49 14° S visible
20 Jul10.205:49:22NE05:49:22NE05:38:30WSWvisible
20 Jul 9.7 10:47:17 10° NNW 10:49:47 16° NNE 10:52:19 10° ENE visible
21 Jul 6.9 04:05:17 10° SSW 04:08:56 41° SE 04:12:29 10° ENE visible
21 Jul 8.9 05:46:24 10° W 05:49:30 23° NNW 05:52:34 10° NNE visible
21 Jul 9.2 10:51:53 10° NNW 10:55:04 23° NNE 10:58:20 10° E visible
22 Jul 6.4 04:10:04 10° SW 04:13:56 80° SE 04:17:42 10° NE visible
22 Jul 9.6 05:52:24 10° WNW 05:54:47 16° NNW 05:57:09 10° NNE visible
22 Jul 8.3 10:56:39 10° NNW 11:00:16 36° NE 11:04:03 10° ESE visible
23 Jul 7.3 04:15:12 10° WSW 04:19:01 54° NW 04:22:43 10° NE visible
23 Jul 10.0 05:58:54 10° NW 06:00:09 11° NNW 06:01:25 10° N visible
23 Jul 9.9 09:22:37 10° N 09:24:19 12° NNE 09:26:01 10° NE visible
23 Jul 7.2 11:01:32 10° NW 11:05:23 62° NE 11:09:27 10° ESE visible
24 Jul 8.5 04:20:40 10° W 04:24:09 32° NW 04:27:34 10° NNE visible
24 Jul 9.5 09:27:01 10° NNW 09:29:39 17° NNE 09:32:20 10° ENE visible
24 Jul 6.5 11:06:35 10° NW 11:10:27 73° SW 11:14:31 10° SE visible
25 Jul 9.3 04:26:26 10° W 04:29:23 21° NNW 04:32:17 10° NNE visible
25 Jul9.909:38:51E09:38:51E09:29:42NWvisible
25 Jul 7.1 11:15:37 38° SW 11:15:37 38° SW 11:19:15 10° SSE visible
26 Jul 9.7 04:32:32 10° WNW 04:34:42 14° NNW 04:36:49 10° N visible
